Latest Weather Observations for Proserpine

IDQ60801

Issued at 1:32 pm EST Sunday 25 January 2015 (issued every 30 minutes, with the page automatically refreshed every 10 minutes)

About weather observations | Map of weather stations | Latest weather observations for QLD | Other Formats
Station Details ID: 033247 Name: PROSERPINE AIRPORT Lat: -20.49 Lon: 148.56 Height: 19.7 m
Data from the previous 72 hours. | See also: Recent months at Proserpine
Date/Time
EST
Temp
°C
App
Temp
°C
Dew
Point
Rel
Hum
%
Delta-T
°C
Wind Press
QNH
hPa
Press
MSL
hPa
Rain
since 9 am
mm
Dir
 
Spd
km/h
Gust
km/h
Spd
kts
Gust
kts
25/01:30pm 33.9 36.9 26.1 63 5.6 N 22 33 12 18 1005.2 1005.1 0.0
25/01:00pm 35.2 36.8 22.2 47 8.9 WNW 17 28 9 15 1005.4 1005.3 0.0
25/12:30pm 34.9 38.4 24.2 53 7.5 NW 13 20 7 11 1005.5 1005.4 0.0
25/12:00pm 33.7 37.1 24.0 57 6.8 NW 13 22 7 12 1005.8 1005.7 0.0
25/11:30am 33.2 36.5 23.2 55 6.9 NW 11 17 6 9 1006.2 1006.1 0.0
25/11:00am 32.5 36.9 24.5 62 5.6 NNW 9 15 5 8 1006.7 1006.6 0.0
25/10:30am 31.4 34.7 23.8 64 5.3 N 13 19 7 10 1007.1 1007.0 0.0
25/10:00am 30.3 34.2 24.2 70 4.3 N 11 15 6 8 1007.4 1007.3 0.0
25/09:30am 29.9 34.1 24.1 71 4.0 NNW 9 15 5 8 1007.5 1007.4 0.0
25/09:00am 29.3 33.1 24.0 73 3.7 NNW 11 13 6 7 1007.6 1007.5 0.4
25/08:30am 29.0 32.4 23.4 72 3.8 NNW 11 17 6 9 1007.7 1007.6 0.4
25/08:00am 29.0 32.1 24.1 75 3.4 NW 15 19 8 10 1007.8 1007.7 0.4
25/07:30am 27.9 30.7 23.7 78 2.9 NW 15 22 8 12 1007.9 1007.8 0.4
25/07:00am 26.9 30.3 24.0 84 2.0 NW 13 15 7 8 1007.7 1007.6 0.4
25/06:30am 26.5 29.5 23.4 83 2.1 NNW 13 19 7 10 1007.5 1007.4 0.4
25/06:00am 25.9 29.5 23.8 88 1.4 NNW 11 15 6 8 1007.2 1007.1 0.4
25/05:30am 25.8 29.4 23.8 89 1.4 NW 11 17 6 9 1006.7 1006.6 0.4
25/05:00am 25.7 29.0 23.9 90 1.2 NNW 13 17 7 9 1006.5 1006.4 0.4
25/04:30am 25.6 29.2 23.8 90 1.2 N 11 13 6 7 1006.3 1006.2 0.4
25/04:00am 26.0 30.1 23.9 88 1.4 NNW 9 11 5 6 1006.3 1006.2 0.4
25/03:30am 26.1 30.1 23.8 87 1.6 N 9 15 5 8 1006.4 1006.3 0.4
25/03:00am 26.1 29.9 24.0 88 1.4 WNW 11 17 6 9 1006.4 1006.3 0.4
25/02:30am 26.1 29.9 24.1 89 1.4 NNW 11 17 6 9 1006.2 1006.1 0.4
25/02:00am 26.0 29.4 24.0 89 1.4 NNW 13 17 7 9 1005.9 1005.8 0.4
25/01:30am 25.9 29.6 24.5 92 1.0 NNW 13 17 7 9 1006.2 1006.1 0.4
25/01:00am 26.0 28.9 24.4 91 1.1 NNW 17 22 9 12 1006.1 1006.0 0.4
25/12:30am 25.9 29.1 24.3 91 1.1 NNW 15 20 8 11 1007.1 1007.0 0.4
25/12:00am 25.7 30.0 24.3 92 1.0 NNW 9 13 5 7 1007.4 1007.3 0.4
 
Date/Time
EST
Temp
°C
App
Temp
°C
Dew
Point
Rel
Hum
%
Delta-T
°C
Wind Press
QNH
hPa
Press
MSL
hPa
Rain
since 9 am
mm
Dir
 
Spd
km/h
Gust
km/h
Spd
kts
Gust
kts
24/11:30pm 25.4 29.5 24.0 92 1.0 NNW 9 11 5 6 1007.5 1007.4 0.4
24/11:00pm 25.3 29.8 23.7 91 1.1 WSW 6 7 3 4 1007.7 1007.6 0.4
24/10:30pm 25.3 29.8 23.9 92 1.0 NNW 7 11 4 6 1007.8 1007.7 0.4
24/10:00pm 25.2 29.6 23.8 92 1.0 NW 7 13 4 7 1007.9 1007.8 0.4
24/09:30pm 24.9 29.0 23.9 94 0.7 NW 9 13 5 7 1007.0 1006.9 0.4
24/09:00pm 24.7 28.7 23.8 95 0.6 NNW 9 13 5 7 1006.7 1006.6 0.4
24/08:30pm 24.8 29.4 23.8 94 0.7 NE 6 9 3 5 1006.5 1006.4 0.4
24/08:00pm 24.9 30.2 23.7 93 0.8 N 2 9 1 5 1006.3 1006.2 0.4
24/07:30pm 24.8 28.7 23.6 93 0.8 N 9 13 5 7 1006.0 1005.9 0.4
24/07:00pm 25.2 29.4 23.4 90 1.2 ENE 7 9 4 5 1005.9 1005.8 0.0
24/06:30pm 25.7 29.6 23.0 85 1.8 NNW 7 13 4 7 1005.8 1005.7 0.0
24/06:00pm 25.3 29.4 23.2 88 1.4 N 7 11 4 6 1005.8 1005.7 0.0
24/05:30pm 25.4 30.0 23.1 87 1.6 W 4 7 2 4 1005.2 1005.1 0.0
24/05:00pm 25.1 28.0 23.2 89 1.3 NW 13 20 7 11 1004.7 1004.6 0.0
24/04:30pm 25.2 27.9 22.9 87 1.6 N 13 17 7 9 1004.7 1004.6 0.0
24/04:00pm 24.9 27.4 22.4 86 1.7 NNE 13 19 7 10 1005.5 1005.4 0.0
24/03:30pm 25.1 27.6 22.4 85 1.8 SW 13 20 7 11 1004.9 1004.8 0.0
24/03:00pm 25.5 25.5 22.4 83 2.1 SW 26 39 14 21 1005.0 1004.9 0.0
24/02:40pm 29.0 30.0 22.2 66 4.6 NW 20 41 11 22 1005.6 1005.5 0.0
24/02:30pm 30.3 33.8 24.9 73 3.8 NW 15 22 8 12 1005.0 1004.9 0.0
24/02:00pm 30.8 34.5 23.2 64 5.2 S 9 15 5 8 1004.2 1004.1 0.0
24/01:30pm 33.0 35.8 25.3 64 5.5 NNW 20 30 11 16 1004.5 1004.4 0.0
24/01:00pm 32.7 34.7 25.2 64 5.3 NNW 24 32 13 17 1004.4 1004.3 0.0
24/12:30pm 32.8 34.5 24.0 60 6.1 NNW 22 32 12 17 1004.7 1004.6 0.0
24/12:00pm 32.5 36.0 26.3 70 4.5 NNW 20 26 11 14 1005.2 1005.1 0.0
24/11:30am 31.6 35.0 25.9 72 4.1 N 19 28 10 15 1005.6 1005.5 0.0
24/11:00am 32.2 36.0 25.3 67 4.9 NNW 15 22 8 12 1005.9 1005.8 0.0
24/10:30am 32.2 36.1 24.8 65 5.2 NW 13 20 7 11 1006.1 1006.0 0.0
24/10:00am 31.2 34.2 24.6 68 4.6 NW 17 22 9 12 1006.3 1006.2 0.0
24/09:30am 31.4 35.6 25.3 70 4.3 NNW 13 19 7 10 1006.6 1006.5 0.0
24/09:00am 30.5 35.1 26.0 77 3.2 NNW 13 22 7 12 1006.6 1006.5 0.0
24/08:30am 29.9 34.6 25.6 78 3.0 NNW 11 15 6 8 1006.7 1006.6 0.0
24/08:00am 29.1 34.0 24.6 76 3.1 NNW 7 11 4 6 1006.6 1006.5 0.0
24/07:30am 28.2 34.0 24.6 81 2.5 WNW 2 9 1 5 1006.4 1006.3 0.0
24/07:00am 27.1 33.5 24.9 88 1.5 CALM 0 0 0 0 1006.3 1006.2 0.0
24/06:30am 25.9 32.3 24.9 94 0.7 CALM 0 6 0 3 1005.9 1005.8 0.0
24/06:00am 24.8 29.5 23.9 95 0.6 NNE 6 7 3 4 1005.6 1005.5 0.0
24/05:30am 24.9 29.0 24.0 95 0.6 N 9 13 5 7 1005.2 1005.1 0.0
24/05:00am 24.7 29.6 23.7 94 0.7 N 4 6 2 3 1004.9 1004.8 0.0
24/04:30am 25.3 30.3 23.9 92 1.0 NNW 4 7 2 4 1004.5 1004.4 0.0
24/04:00am 25.4 29.7 24.2 93 0.8 NW 9 13 5 7 1004.2 1004.1 0.0
24/03:30am 25.1 28.5 24.1 94 0.7 N 13 17 7 9 1004.1 1004.0 0.0
24/03:00am 25.1 29.7 24.2 95 0.6 WNW 7 11 4 6 1004.5 1004.4 0.0
24/02:30am 24.9 29.0 24.0 95 0.6 NW 9 11 5 6 1004.8 1004.7 0.0
24/02:00am 24.7 29.4 24.0 96 0.5 W 6 9 3 5 1005.2 1005.1 0.0
24/01:30am 24.5 29.4 23.6 95 0.6 WNW 4 6 2 3 1005.2 1005.1 0.0
24/01:00am 24.7 30.4 23.7 94 0.7 CALM 0 0 0 0 1005.1 1005.0 0.0
24/12:30am 24.6 29.1 23.7 95 0.6 SW 6 7 3 4 1005.6 1005.5 0.0
24/12:00am 24.8 30.5 23.8 94 0.7 CALM 0 0 0 0 1005.6 1005.5 0.0
 
Date/Time
EST
Temp
°C
App
Temp
°C
Dew
Point
Rel
Hum
%
Delta-T
°C
Wind Press
QNH
hPa
Press
MSL
hPa
Rain
since 9 am
mm
Dir
 
Spd
km/h
Gust
km/h
Spd
kts
Gust
kts
23/11:30pm 24.9 30.6 23.7 93 0.8 CALM 0 0 0 0 1005.8 1005.7 0.0
23/11:00pm 24.9 29.7 23.5 92 1.0 NW 4 6 2 3 1006.0 1005.9 0.0
23/10:30pm 25.1 30.1 23.9 93 0.8 WNW 4 6 2 3 1006.1 1006.0 0.0
23/10:00pm 24.9 29.4 23.7 93 0.8 SW 6 6 3 3 1006.2 1006.1 0.0
23/09:30pm 25.3 31.0 23.7 91 1.1 CALM 0 0 0 0 1005.8 1005.7 0.0
23/09:00pm 25.5 30.6 23.4 88 1.4 N 2 6 1 3 1005.7 1005.6 0.0
23/08:30pm 26.0 30.5 23.7 87 1.6 ENE 6 7 3 4 1005.2 1005.1 0.0
23/08:00pm 26.0 30.4 23.5 86 1.7 E 6 9 3 5 1005.0 1004.9 0.0
23/07:30pm 26.6 30.4 23.5 83 2.1 N 9 15 5 8 1004.3 1004.2 0.0
23/07:00pm 27.0 31.1 23.9 83 2.1 N 9 13 5 7 1003.9 1003.8 0.0
23/06:30pm 27.7 31.4 23.9 80 2.6 N 11 15 6 8 1003.5 1003.4 0.0
23/06:00pm 28.2 32.1 24.2 79 2.8 NNE 11 17 6 9 1003.1 1003.0 0.0
23/05:30pm 28.5 31.9 24.1 77 3.0 NE 13 17 7 9 1002.4 1002.3 0.0
23/05:00pm 29.0 32.6 24.3 76 3.3 NNE 13 19 7 10 1002.2 1002.1 0.0
23/04:30pm 29.4 33.7 24.3 74 3.5 NE 9 15 5 8 1002.1 1002.0 0.0
23/04:00pm 30.0 34.3 24.2 71 4.0 NNE 9 15 5 8 1002.0 1001.9 0.0
23/03:30pm 30.5 34.5 23.7 67 4.7 N 9 17 5 9 1002.1 1002.0 0.0
23/03:00pm 31.4 34.8 24.0 65 5.2 N 13 17 7 9 1002.4 1002.3 0.0
23/02:30pm 31.3 34.5 23.1 61 5.6 N 11 19 6 10 1002.6 1002.5 0.0
23/02:00pm 31.0 34.5 22.9 62 5.6 NNW 9 19 5 10 1002.9 1002.8 0.0
23/01:30pm 30.5 33.7 23.7 67 4.7 N 13 20 7 11 1003.2 1003.1 0.0
23/01:00pm 29.6 32.8 23.1 68 4.5 NNW 11 17 6 9 1003.5 1003.4 0.0
23/12:30pm 29.7 33.4 23.2 68 4.5 NNE 9 19 5 10 1003.8 1003.7 0.0
23/12:00pm 29.2 32.3 22.9 69 4.3 NNE 11 17 6 9 1004.2 1004.1 0.0
23/11:30am 28.9 32.4 22.9 70 4.1 NNE 9 13 5 7 1004.8 1004.7 0.0
23/11:00am 28.7 32.8 22.9 71 4.0 NNE 6 13 3 7 1005.0 1004.9 0.0
23/10:30am 27.8 31.7 23.0 75 3.3 NNE 7 11 4 6 1005.2 1005.1 0.0
23/10:00am 27.3 31.8 22.9 77 3.0 NNE 4 7 2 4 1005.0 1004.9 0.0
23/09:30am 26.4 30.0 22.0 77 2.9 S 6 9 3 5 1005.2 1005.1 0.0
23/09:00am 25.0 28.7 22.3 85 1.8 S 6 9 3 5 1005.4 1005.3 77.8
23/08:30am 24.5 29.0 22.2 87 1.5 E 2 7 1 4 1005.6 1005.5 77.8
23/08:00am 23.0 27.8 22.2 95 0.5 CALM 0 0 0 0 1005.8 1005.7 77.8
23/07:30am 22.1 26.5 21.4 96 0.5 CALM 0 4 0 2 1005.7 1005.6 77.8
23/07:00am 21.7 25.9 21.0 96 0.5 CALM 0 0 0 0 1005.3 1005.2 77.8
23/06:48am 21.7 26.0 21.2 97 0.3 CALM 0 0 0 0 1005.3 1005.2 77.8
23/06:34am 21.5 25.7 21.0 97 0.3 CALM 0 0 0 0 1005.5 1005.4 77.8
23/06:30am 21.4 25.6 20.9 97 0.3 CALM 0 0 0 0 1005.6 1005.5 77.8
23/06:00am 21.3 25.0 20.8 97 0.3 E 2 9 1 5 1004.4 1004.3 77.8
23/05:30am 21.3 25.4 20.8 97 0.3 CALM 0 0 0 0 1004.5 1004.4 77.8
23/05:00am 21.2 24.1 20.7 97 0.3 NW 6 7 3 4 1004.5 1004.4 77.8
23/04:31am 21.2 24.5 20.7 97 0.3 NW 4 6 2 3 1004.4 1004.3 77.8
23/04:30am 21.2 24.5 20.7 97 0.3 NW 4 6 2 3 1004.4 1004.3 77.8
23/04:00am 21.1 24.3 20.6 97 0.3 NW 4 6 2 3 1004.1 1004.0 77.8
23/03:58am 21.1 24.3 20.6 97 0.3 NW 4 6 2 3 1004.2 1004.1 77.8
23/03:30am 20.9 23.5 20.4 97 0.3 SSW 7 9 4 5 1003.7 1003.6 77.8
23/03:00am 21.0 23.2 20.5 97 0.3 SW 9 11 5 6 1003.9 1003.8 77.8
23/02:30am 20.9 24.4 20.4 97 0.3 W 2 9 1 5 1003.7 1003.6 77.8
23/02:00am 20.8 23.0 20.3 97 0.3 SE 9 13 5 7 1003.1 1003.0 77.8
23/01:43am 20.8 23.0 20.3 97 0.3 SSW 9 13 5 7 1003.8 1003.7 77.8
23/01:30am 20.7 22.4 20.2 97 0.3 SE 11 17 6 9 1004.2 1004.1 77.6
23/01:00am 20.6 23.0 20.1 97 0.3 S 7 11 4 6 1005.1 1005.0 77.6
23/12:56am 20.6 23.0 20.1 97 0.3 S 7 11 4 6 1005.3 1005.2 77.6
23/12:30am 20.5 21.8 20.2 98 0.2 SSW 13 17 7 9 1005.4 1005.3 77.4
23/12:00am 20.4 22.5 20.1 98 0.2 WNW 9 13 5 7 1006.1 1006.0 76.8
 
Date/Time
EST
Temp
°C
App
Temp
°C
Dew
Point
Rel
Hum
%
Delta-T
°C
Wind Press
QNH
hPa
Press
MSL
hPa
Rain
since 9 am
mm
Dir
 
Spd
km/h
Gust
km/h
Spd
kts
Gust
kts
22/11:58pm 20.5 23.0 20.2 98 0.2 NW 7 13 4 7 1006.1 1006.0 76.8
22/11:30pm 20.3 21.8 19.8 97 0.3 ESE 11 17 6 9 1004.9 1004.8 76.0
22/11:00pm 20.4 22.9 19.9 97 0.3 N 6 9 3 5 1006.6 1006.5 74.6
22/10:47pm 20.4 23.2 19.7 96 0.4 W 4 7 2 4 1006.7 1006.6 74.2
22/10:30pm 20.5 24.1 19.8 96 0.4 CALM 0 7 0 4 1006.5 1006.4 73.2
22/10:00pm 20.5 23.0 19.8 96 0.4 W 6 11 3 6 1006.7 1006.6 70.4
22/09:57pm 20.5 22.4 19.8 96 0.4 WSW 9 13 5 7 1006.9 1006.8 70.2
22/09:30pm 20.7 23.3 20.0 96 0.4 SSW 6 9 3 5 1006.4 1006.3 68.8
22/09:00pm 20.8 22.4 20.0 95 0.5 SW 11 19 6 10 1006.6 1006.5 68.0
22/08:30pm 20.6 21.8 19.8 95 0.5 SSW 13 17 7 9 1005.6 1005.5 67.8
22/08:20pm 20.6 21.8 19.8 95 0.5 SSW 13 17 7 9 1005.3 1005.2 67.8
22/08:00pm 20.6 22.2 19.9 96 0.4 SSW 11 13 6 7 1005.0 1004.9 67.8
22/07:44pm 20.4 21.8 19.6 95 0.5 SSW 11 13 6 7 1004.9 1004.8 67.8
22/07:30pm 20.5 22.4 19.8 96 0.4 SSW 9 13 5 7 1004.8 1004.7 67.8
22/07:00pm 20.7 23.2 20.2 97 0.3 SE 7 9 4 5 1004.6 1004.5 67.8
22/06:30pm 20.3 21.0 19.6 96 0.4 ESE 15 20 8 11 1004.6 1004.5 67.6
22/06:00pm 20.7 22.3 20.0 96 0.4 E 11 15 6 8 1004.8 1004.7 65.8
22/05:53pm 20.9 23.1 20.4 97 0.3 E 9 13 5 7 1004.8 1004.7 65.2
22/05:30pm 21.1 24.0 20.6 97 0.3 SSE 6 9 3 5 1004.8 1004.7 63.8
22/05:00pm 21.2 22.1 20.9 98 0.2 SE 17 20 9 11 1004.1 1004.0 60.6
22/04:41pm 21.2 23.2 20.7 97 0.3 SSE 11 15 6 8 1004.7 1004.6 58.8
22/04:30pm 21.3 22.9 20.8 97 0.3 S 13 15 7 8 1004.8 1004.7 58.0
22/04:29pm 21.3 23.0 21.0 98 0.2 S 13 15 7 8 1004.8 1004.7 58.0
22/04:12pm 21.4 22.8 21.1 98 0.2 SE 15 19 8 10 1004.4 1004.3 57.6
22/04:00pm 20.9 22.1 20.6 98 0.2 E 15 20 8 11 1004.2 1004.1 57.0
22/03:49pm 20.9 22.4 20.6 98 0.2 ENE 13 17 7 9 1004.4 1004.3 56.4
22/03:48pm 20.9 22.4 20.6 98 0.2 ENE 13 17 7 9 1004.4 1004.3 56.4
22/03:30pm 20.9 22.1 20.6 98 0.2 ESE 15 24 8 13 1004.4 1004.3 55.6
22/03:00pm 20.9 21.6 20.4 97 0.3 S 17 24 9 13 1004.8 1004.7 45.2
22/02:30pm 21.3 21.7 20.6 96 0.5 SSE 19 28 10 15 1004.2 1004.1 35.6
22/02:22pm 21.2 20.6 20.5 96 0.5 SSE 24 33 13 18 1004.1 1004.0 34.8
22/02:00pm 21.8 22.3 21.1 96 0.5 SSE 20 30 11 16 1004.5 1004.4 33.6

Other Formats:

Comma delimited format used in spreadsheet applications
http://www.bom.gov.au/fwo/IDQ60801/IDQ60801.94365.axf

JavaScript Object Notation format (JSON) in row-major order
http://www.bom.gov.au/fwo/IDQ60801/IDQ60801.94365.json